![]() |
EMODnet Physics ERDDAP
Easier access to scientific data |
log in|
Brought to you by EMODnet Physics |
| Dataset Title: | NDBC - Collection of dew point temperature (DEWT) TimeSeries - IN SITU MultiPointTimeSeriesObservation
|
| Institution: | NDBC (Dataset ID: TS_DEWT_NDBC) |
| Information: | Summary
| License
| FGDC
| ISO 19115
| Metadata
| Background
| Subset
| Data Access Form
| Make a graph
|
| Name | Last modified | Size | Description | |
|---|---|---|---|---|
| Parent Directory | - | - | ||
| 44063_TS_DEWT_012011.nc | 07-Dec-2024 08:09 | 1647521 | ||
| 44063_TS_DEWT_012012.nc | 07-Dec-2024 08:17 | 1672687 | ||
| 44063_TS_DEWT_012013.nc | 07-Dec-2024 08:21 | 1666546 | ||
| 44063_TS_DEWT_012014.nc | 07-Dec-2024 08:26 | 1476874 | ||
| 44063_TS_DEWT_012015.nc | 07-Dec-2024 08:32 | 1680505 | ||
| 44063_TS_DEWT_012021.nc | 07-Dec-2024 08:59 | 1678203 | ||
| 44063_TS_DEWT_012022.nc | 07-Dec-2024 09:05 | 4811675 | ||
| 44063_TS_DEWT_012023.nc | 07-Dec-2024 09:12 | 1161486 | ||
| 44063_TS_DEWT_022011.nc | 07-Dec-2024 08:11 | 1476705 | ||
| 44063_TS_DEWT_022012.nc | 07-Dec-2024 08:17 | 1625652 | ||
| 44063_TS_DEWT_022013.nc | 07-Dec-2024 08:22 | 1477973 | ||
| 44063_TS_DEWT_022014.nc | 07-Dec-2024 08:26 | 1626862 | ||
| 44063_TS_DEWT_022015.nc | 07-Dec-2024 08:33 | 1626938 | ||
| 44063_TS_DEWT_022022.nc | 07-Dec-2024 09:05 | 1626921 | ||
| 44063_TS_DEWT_022023.nc | 07-Dec-2024 09:14 | 1626892 | ||
| 44063_TS_DEWT_032011.nc | 07-Dec-2024 08:13 | 1626267 | ||
| 44063_TS_DEWT_032012.nc | 07-Dec-2024 08:18 | 1836705 | ||
| 44063_TS_DEWT_032013.nc | 07-Dec-2024 08:22 | 1668914 | ||
| 44063_TS_DEWT_032014.nc | 07-Dec-2024 08:26 | 1790617 | ||
| 44063_TS_DEWT_032016.nc | 07-Dec-2024 08:44 | 1832332 | ||
| 44063_TS_DEWT_032021.nc | 07-Dec-2024 08:59 | 1678558 | ||
| 44063_TS_DEWT_032022.nc | 07-Dec-2024 09:06 | 1679171 | ||
| 44063_TS_DEWT_032023.nc | 07-Dec-2024 09:16 | 1674611 | ||
| 44063_TS_DEWT_042011.nc | 07-Dec-2024 08:15 | 1624374 | ||
| 44063_TS_DEWT_042012.nc | 07-Dec-2024 08:18 | 1837207 | ||
| 44063_TS_DEWT_042013.nc | 07-Dec-2024 08:22 | 1840375 | ||
| 44063_TS_DEWT_042014.nc | 07-Dec-2024 08:27 | 5563336 | ||
| 44063_TS_DEWT_042016.nc | 07-Dec-2024 08:44 | 1149145 | ||
| 44063_TS_DEWT_042017.nc | 07-Dec-2024 08:47 | 1474577 | ||
| 44063_TS_DEWT_042020.nc | 07-Dec-2024 08:56 | 1472617 | ||
| 44063_TS_DEWT_042021.nc | 07-Dec-2024 09:00 | 1474109 | ||
| 44063_TS_DEWT_042022.nc | 07-Dec-2024 09:06 | 1476910 | ||
| 44063_TS_DEWT_042023.nc | 07-Dec-2024 09:18 | 1476171 | ||
| 44063_TS_DEWT_052010.nc | 07-Dec-2024 07:56 | 1475823 | ||
| 44063_TS_DEWT_052011.nc | 07-Dec-2024 08:15 | 1476999 | ||
| 44063_TS_DEWT_052012.nc | 07-Dec-2024 08:19 | 1476442 | ||
| 44063_TS_DEWT_052013.nc | 07-Dec-2024 08:23 | 1678333 | ||
| 44063_TS_DEWT_052014.nc | 07-Dec-2024 08:27 | 1674075 | ||
| 44063_TS_DEWT_052016.nc | 07-Dec-2024 08:44 | 1636225 | ||
| 44063_TS_DEWT_052017.nc | 07-Dec-2024 08:47 | 1679098 | ||
| 44063_TS_DEWT_052018.nc | 07-Dec-2024 08:50 | 1670476 | ||
| 44063_TS_DEWT_052019.nc | 07-Dec-2024 08:52 | 1666342 | ||
| 44063_TS_DEWT_052020.nc | 07-Dec-2024 08:57 | 1669560 | ||
| 44063_TS_DEWT_052021.nc | 07-Dec-2024 09:00 | 1610309 | ||
| 44063_TS_DEWT_052022.nc | 07-Dec-2024 09:07 | 1679639 | ||
| 44063_TS_DEWT_052023.nc | 07-Dec-2024 09:20 | 1675396 | ||
| 44063_TS_DEWT_062010.nc | 07-Dec-2024 07:57 | 3011649 | ||
| 44063_TS_DEWT_062011.nc | 07-Dec-2024 08:15 | 429570 | ||
| 44063_TS_DEWT_062012.nc | 07-Dec-2024 08:19 | 914021 | ||
| 44063_TS_DEWT_062013.nc | 07-Dec-2024 08:23 | 1477658 | ||
| 44063_TS_DEWT_062014.nc | 07-Dec-2024 08:27 | 1626818 | ||
| 44063_TS_DEWT_062015.nc | 07-Dec-2024 08:35 | 1626773 | ||
| 44063_TS_DEWT_062016.nc | 07-Dec-2024 08:45 | 1626111 | ||
| 44063_TS_DEWT_062017.nc | 07-Dec-2024 08:48 | 1626899 | ||
| 44063_TS_DEWT_062018.nc | 07-Dec-2024 08:50 | 1626651 | ||
| 44063_TS_DEWT_062019.nc | 07-Dec-2024 08:53 | 1625955 | ||
| 44063_TS_DEWT_062020.nc | 07-Dec-2024 08:57 | 1834334 | ||
| 44063_TS_DEWT_062021.nc | 07-Dec-2024 09:01 | 1671601 | ||
| 44063_TS_DEWT_062022.nc | 07-Dec-2024 09:08 | 1644869 | ||
| 44063_TS_DEWT_062023.nc | 07-Dec-2024 09:21 | 1674135 | ||
| 44063_TS_DEWT_072010.nc | 07-Dec-2024 07:59 | 1672341 | ||
| 44063_TS_DEWT_072011.nc | 07-Dec-2024 08:16 | 1671293 | ||
| 44063_TS_DEWT_072012.nc | 07-Dec-2024 08:19 | 1649553 | ||
| 44063_TS_DEWT_072013.nc | 07-Dec-2024 08:23 | 1830574 | ||
| 44063_TS_DEWT_072014.nc | 07-Dec-2024 08:28 | 1834385 | ||
| 44063_TS_DEWT_072015.nc | 07-Dec-2024 08:37 | 1829712 | ||
| 44063_TS_DEWT_072016.nc | 07-Dec-2024 08:45 | 1688728 | ||
| 44063_TS_DEWT_072017.nc | 07-Dec-2024 08:48 | 428441 | ||
| 44063_TS_DEWT_072018.nc | 07-Dec-2024 08:50 | 1473814 | ||
| 44063_TS_DEWT_072019.nc | 07-Dec-2024 08:53 | 1625145 | ||
| 44063_TS_DEWT_072020.nc | 07-Dec-2024 08:57 | 1626873 | ||
| 44063_TS_DEWT_072021.nc | 07-Dec-2024 09:01 | 1476686 | ||
| 44063_TS_DEWT_072022.nc | 07-Dec-2024 09:08 | 1626417 | ||
| 44063_TS_DEWT_072023.nc | 07-Dec-2024 09:24 | 1626958 | ||
| 44063_TS_DEWT_082010.nc | 07-Dec-2024 08:01 | 1626403 | ||
| 44063_TS_DEWT_082011.nc | 07-Dec-2024 08:16 | 1832566 | ||
| 44063_TS_DEWT_082012.nc | 07-Dec-2024 08:20 | 1831111 | ||
| 44063_TS_DEWT_082013.nc | 07-Dec-2024 08:24 | 1820691 | ||
| 44063_TS_DEWT_082014.nc | 07-Dec-2024 08:28 | 1828576 | ||
| 44063_TS_DEWT_082015.nc | 07-Dec-2024 08:39 | 1664794 | ||
| 44063_TS_DEWT_082016.nc | 07-Dec-2024 08:45 | 1670858 | ||
| 44063_TS_DEWT_082017.nc | 07-Dec-2024 08:48 | 1827813 | ||
| 44063_TS_DEWT_082018.nc | 07-Dec-2024 08:51 | 1832933 | ||
| 44063_TS_DEWT_082019.nc | 07-Dec-2024 08:54 | 1837103 | ||
| 44063_TS_DEWT_082021.nc | 07-Dec-2024 09:02 | 1831705 | ||
| 44063_TS_DEWT_082022.nc | 07-Dec-2024 09:09 | 1476101 | ||
| 44063_TS_DEWT_082023.nc | 07-Dec-2024 09:25 | 1474221 | ||
| 44063_TS_DEWT_092010.nc | 07-Dec-2024 08:03 | 1476719 | ||
| 44063_TS_DEWT_092011.nc | 07-Dec-2024 08:16 | 1471433 | ||
| 44063_TS_DEWT_092012.nc | 07-Dec-2024 08:20 | 1477088 | ||
| 44063_TS_DEWT_092013.nc | 07-Dec-2024 08:24 | 1476947 | ||
| 44063_TS_DEWT_092014.nc | 07-Dec-2024 08:28 | 1477060 | ||
| 44063_TS_DEWT_092015.nc | 07-Dec-2024 08:40 | 1669962 | ||
| 44063_TS_DEWT_092016.nc | 07-Dec-2024 08:46 | 1680692 | ||
| 44063_TS_DEWT_092017.nc | 07-Dec-2024 08:49 | 1663405 | ||
| 44063_TS_DEWT_092018.nc | 07-Dec-2024 08:51 | 1673962 | ||
| 44063_TS_DEWT_092019.nc | 07-Dec-2024 08:54 | 1668253 | ||
| 44063_TS_DEWT_092021.nc | 07-Dec-2024 09:02 | 1647867 | ||
| 44063_TS_DEWT_092022.nc | 07-Dec-2024 09:10 | 1675315 | ||
| 44063_TS_DEWT_092023.nc | 07-Dec-2024 09:27 | 1676346 | ||
| 44063_TS_DEWT_102010.nc | 07-Dec-2024 08:05 | 1677971 | ||
| 44063_TS_DEWT_102011.nc | 07-Dec-2024 08:17 | 1673301 | ||
| 44063_TS_DEWT_102012.nc | 07-Dec-2024 08:20 | 429808 | ||
| 44063_TS_DEWT_102013.nc | 07-Dec-2024 08:24 | 427777 | ||
| 44063_TS_DEWT_102014.nc | 07-Dec-2024 08:29 | 1626727 | ||
| 44063_TS_DEWT_102015.nc | 07-Dec-2024 08:42 | 1476383 | ||
| 44063_TS_DEWT_102016.nc | 07-Dec-2024 08:46 | 1626237 | ||
| 44063_TS_DEWT_102017.nc | 07-Dec-2024 08:49 | 1626909 | ||
| 44063_TS_DEWT_102018.nc | 07-Dec-2024 08:52 | 1474456 | ||
| 44063_TS_DEWT_102019.nc | 07-Dec-2024 08:55 | 1626835 | ||
| 44063_TS_DEWT_102021.nc | 07-Dec-2024 09:03 | 1626947 | ||
| 44063_TS_DEWT_102022.nc | 07-Dec-2024 09:10 | 1828846 | ||
| 44063_TS_DEWT_102023.nc | 07-Dec-2024 09:28 | 1835397 | ||
| 44063_TS_DEWT_112010.nc | 07-Dec-2024 08:06 | 1673030 | ||
| 44063_TS_DEWT_112011.nc | 07-Dec-2024 08:17 | 1820114 | ||
| 44063_TS_DEWT_112012.nc | 07-Dec-2024 08:21 | 1830725 | ||
| 44063_TS_DEWT_112013.nc | 07-Dec-2024 08:25 | 1676428 | ||
| 44063_TS_DEWT_112014.nc | 07-Dec-2024 08:29 | 1824550 | ||
| 44063_TS_DEWT_112015.nc | 07-Dec-2024 08:43 | 1835953 | ||
| 44063_TS_DEWT_112016.nc | 07-Dec-2024 08:46 | 1746892 | ||
| 44063_TS_DEWT_112017.nc | 07-Dec-2024 08:49 | 1833538 | ||
| 44063_TS_DEWT_112018.nc | 07-Dec-2024 08:52 | 429084 | ||
| 44063_TS_DEWT_112019.nc | 07-Dec-2024 08:55 | 429458 | ||
| 44063_TS_DEWT_112020.nc | 07-Dec-2024 08:58 | 1476822 | ||
| 44063_TS_DEWT_112021.nc | 07-Dec-2024 09:03 | 1476952 | ||
| 44063_TS_DEWT_112022.nc | 07-Dec-2024 09:11 | 1476822 | ||
| 44063_TS_DEWT_112023.nc | 07-Dec-2024 09:28 | 1476995 | ||
| 44063_TS_DEWT_122010.nc | 07-Dec-2024 08:08 | 1476892 | ||
| 44063_TS_DEWT_122011.nc | 07-Dec-2024 08:17 | 1476286 | ||
| 44063_TS_DEWT_122012.nc | 07-Dec-2024 08:21 | 1476376 | ||
| 44063_TS_DEWT_122013.nc | 07-Dec-2024 08:25 | 1674992 | ||
| 44063_TS_DEWT_122014.nc | 07-Dec-2024 08:30 | 1675026 | ||
| 44063_TS_DEWT_122015.nc | 07-Dec-2024 08:43 | 1654125 | ||
| 44063_TS_DEWT_122016.nc | 07-Dec-2024 08:47 | 1668971 | ||
| 44063_TS_DEWT_122017.nc | 07-Dec-2024 08:50 | 1669312 | ||
| 44063_TS_DEWT_122019.nc | 07-Dec-2024 08:55 | 1660682 | ||
| 44063_TS_DEWT_122020.nc | 07-Dec-2024 08:59 | 1661990 | ||
| 44063_TS_DEWT_122021.nc | 07-Dec-2024 09:04 | 1677056 | ||
| 44063_TS_DEWT_122022.nc | 07-Dec-2024 09:11 | 1681711 | ||
| 44063_TS_DEWT_122023.nc | 07-Dec-2024 09:29 | 1672836 | ||